Location: Pinon Ridge Observatory
(38.3507°N, 107.9359°W)
Time: 22:43:04
(UTC-06:00)

Envisat - Visible Passes

Search period start: 20 September 2018 00:00
Search period end: 30 September 2018 00:00
Orbit: 764 x 766 km, 98.2° (Epoch: 20 September)

Date Brightness Start Highest point End Pass type
(mag) Time Alt. Az. Time Alt. Az. Time Alt. Az.
20 Sep 4.1 20:48:01 10° S 20:52:48 43° W 20:57:39 10° NNW visible
21 Sep 2.9 20:10:59 10° SSE 20:16:02 82° ENE 20:21:08 10° N visible
22 Sep 3.6 19:34:52 10° SE 19:39:28 36° ENE 19:44:04 10° N visible
22 Sep 5.2 21:14:28 10° SSW 21:18:31 24° W 21:22:36 10° NW visible
23 Sep 3.7 20:36:39 10° S 20:41:37 55° W 20:46:36 10° NNW visible
24 Sep 3.0 19:59:53 10° SSE 20:04:53 65° ENE 20:09:55 10° N visible
24 Sep 5.8 21:41:59 10° WSW 21:44:19 13° W 21:46:39 10° WNW visible
25 Sep 3.9 19:24:04 10° SE 19:28:22 29° ENE 19:32:40 10° N visible
25 Sep 4.8 21:02:50 10° SSW 21:07:16 30° W 21:11:44 10° NW visible
26 Sep 3.2 20:25:23 10° S 20:30:25 71° WSW 20:35:30 10° NNW visible
27 Sep 3.2 19:48:53 10° SSE 19:53:45 50° ENE 19:58:39 10° N visible
27 Sep 5.6 21:29:47 10° SW 21:33:02 17° W 21:36:18 10° NW visible
28 Sep 4.3 20:51:20 10° SSW 20:56:02 39° W 21:00:47 10° NNW visible
29 Sep 2.9 20:14:10 10° SSE 20:19:14 90° N 20:24:21 10° NNW visible
